Time,TemperatureF,DewpointF,PressureIn,WindDirection,WindDirectionDegrees,WindSpeedMPH,WindSpeedGustMPH,Humidity,HourlyPrecipIn,Conditions,Clouds,dailyrainin,SoftwareType,DateUTC
2013-03-11 00:00:00,47.7,26.8,30.18,SW,221,0.0,0.0,44,0.00,,---,0.00,VWS V14.01,2013-03-11 04:00:00,
2013-03-11 00:05:00,47.3,26.5,30.18,SSW,213,2.7,2.7,44,0.00,,---,0.00,VWS V14.01,2013-03-11 04:05:00,
2013-03-11 00:10:00,47.1,26.3,30.18,SW,219,3.6,3.6,44,0.00,,---,0.00,VWS V14.01,2013-03-11 04:10:00,
2013-03-11 00:15:00,46.9,26.2,30.18,WSW,238,4.0,4.0,44,0.00,,---,0.00,VWS V14.01,2013-03-11 04:15:00,
2013-03-11 00:20:00,46.8,26.0,30.18,SW,233,0.0,0.0,44,0.00,,---,0.00,VWS V14.01,2013-03-11 04:20:00,
2013-03-11 00:25:00,46.6,25.9,30.18,WSW,242,0.0,0.0,44,0.00,,---,0.00,VWS V14.01,2013-03-11 04:25:00,
2013-03-11 00:30:00,46.6,25.9,30.18,SW,236,0.0,0.0,44,0.00,,---,0.00,VWS V14.01,2013-03-11 04:30:00,
2013-03-11 00:35:00,46.6,25.9,30.18,SW,236,0.0,0.0,44,0.00,,---,0.00,VWS V14.01,2013-03-11 04:35:00,
2013-03-11 00:40:00,46.4,25.7,30.18,SE,146,0.0,0.0,44,0.00,,---,0.00,VWS V14.01,2013-03-11 04:40:00,
2013-03-11 00:45:00,46.2,25.5,30.18,South,191,0.0,0.0,44,0.00,,---,0.00,VWS V14.01,2013-03-11 04:45:00,
2013-03-11 00:50:00,46.0,25.4,30.18,ESE,120,0.0,0.0,44,0.00,,---,0.00,VWS V14.01,2013-03-11 04:50:00,
2013-03-11 00:55:00,46.0,25.4,30.15,WSW,255,0.0,2.7,44,0.00,,---,0.00,VWS V14.01,2013-03-11 04:55:00,
2013-03-11 01:00:00,45.9,25.2,30.15,WSW,258,0.0,0.0,44,0.00,,---,0.00,VWS V14.01,2013-03-11 05:00:00,
2013-03-11 01:05:00,45.7,25.0,30.15,ESE,113,0.0,0.0,44,0.00,,---,0.00,VWS V14.01,2013-03-11 05:05:00,
2013-03-11 01:10:00,45.9,25.2,30.18,SW,229,0.0,0.0,44,0.00,,---,0.00,VWS V14.01,2013-03-11 05:10:00,
2013-03-11 01:15:00,45.9,25.2,30.18,SSE,147,0.0,0.0,44,0.00,,---,0.00,VWS V14.01,2013-03-11 05:15:00,
2013-03-11 01:20:00,45.9,25.2,30.18,SW,217,2.7,3.1,44,0.00,,---,0.00,VWS V14.01,2013-03-11 05:20:00,
2013-03-11 01:25:00,45.9,25.2,30.15,SE,140,0.0,3.1,44,0.00,,---,0.00,VWS V14.01,2013-03-11 05:25:00,
2013-03-11 01:30:00,45.9,25.2,30.15,NW,306,5.8,6.3,44,0.00,,---,0.00,VWS V14.01,2013-03-11 05:30:00,
2013-03-11 01:35:00,45.5,24.9,30.15,West,278,0.0,0.0,44,0.00,,---,0.00,VWS V14.01,2013-03-11 05:35:00,
2013-03-11 01:40:00,45.3,25.2,30.18,West,275,0.0,0.0,45,0.00,,---,0.00,VWS V14.01,2013-03-11 05:40:00,
2013-03-11 01:45:00,45.1,25.1,30.18,West,275,0.0,0.0,45,0.00,,---,0.00,VWS V14.01,2013-03-11 05:45:00,
2013-03-11 01:50:00,45.0,24.9,30.18,WSW,257,0.0,0.0,45,0.00,,---,0.00,VWS V14.01,2013-03-11 05:50:00,
2013-03-11 01:55:00,45.0,24.9,30.18,SE,140,2.7,2.7,45,0.00,,---,0.00,VWS V14.01,2013-03-11 05:55:00,
2013-03-11 02:00:00,45.0,24.9,30.18,SSW,203,6.7,6.7,45,0.00,,---,0.00,VWS V14.01,2013-03-11 06:00:00,
2013-03-11 02:05:00,44.8,24.8,30.18,SE,124,0.0,3.6,45,0.00,,---,0.00,VWS V14.01,2013-03-11 06:05:00,
2013-03-11 02:10:00,44.8,24.8,30.18,SW,214,0.0,0.0,45,0.00,,---,0.00,VWS V14.01,2013-03-11 06:10:00,
2013-03-11 02:15:00,44.6,24.6,30.18,SW,218,0.0,0.0,45,0.00,,---,0.00,VWS V14.01,2013-03-11 06:15:00,
2013-03-11 02:20:00,44.8,24.8,30.18,ESE,105,0.0,0.0,45,0.00,,---,0.00,VWS V14.01,2013-03-11 06:20:00,
2013-03-11 02:25:00,44.8,24.8,30.18,East,94,2.7,4.0,45,0.00,,---,0.00,VWS V14.01,2013-03-11 06:25:00,
2013-03-11 02:30:00,44.8,24.8,30.18,SE,141,2.7,4.9,45,0.00,,---,0.00,VWS V14.01,2013-03-11 06:30:00,
2013-03-11 02:35:00,44.6,24.6,30.18,SE,129,0.0,4.0,45,0.00,,---,0.00,VWS V14.01,2013-03-11 06:35:00,
2013-03-11 02:40:00,44.4,24.4,30.15,ESE,123,0.0,0.0,45,0.00,,---,0.00,VWS V14.01,2013-03-11 06:40:00,
2013-03-11 02:45:00,44.4,24.4,30.15,SSW,202,0.0,3.6,45,0.00,,---,0.00,VWS V14.01,2013-03-11 06:45:00,
2013-03-11 02:50:00,44.4,24.4,30.15,East,87,2.7,3.6,45,0.00,,---,0.00,VWS V14.01,2013-03-11 06:50:00,
2013-03-11 02:55:00,44.4,24.4,30.15,South,184,0.0,4.0,45,0.00,,---,0.00,VWS V14.01,2013-03-11 06:55:00,
2013-03-11 03:00:00,44.4,24.4,30.15,SSE,166,0.0,0.0,45,0.00,,---,0.00,VWS V14.01,2013-03-11 07:00:00,
2013-03-11 03:05:00,44.4,24.4,30.15,SSE,162,0.0,3.1,45,0.00,,---,0.00,VWS V14.01,2013-03-11 07:05:00,
2013-03-11 03:10:00,44.2,24.3,30.15,WSW,238,0.0,0.0,45,0.00,,---,0.00,VWS V14.01,2013-03-11 07:10:00,
2013-03-11 03:15:00,44.2,24.3,30.15,SSE,147,0.0,4.0,45,0.00,,---,0.00,VWS V14.01,2013-03-11 07:15:00,
2013-03-11 03:20:00,44.1,24.1,30.15,NNW,336,3.1,4.0,45,0.00,,---,0.00,VWS V14.01,2013-03-11 07:20:00,
2013-03-11 03:25:00,43.9,23.9,30.15,SW,235,0.0,0.0,45,0.00,,---,0.00,VWS V14.01,2013-03-11 07:25:00,
2013-03-11 03:30:00,43.7,23.8,30.15,SW,232,0.0,0.0,45,0.00,,---,0.00,VWS V14.01,2013-03-11 07:30:00,
2013-03-11 03:35:00,43.5,23.6,30.15,SW,233,0.0,0.0,45,0.00,,---,0.00,VWS V14.01,2013-03-11 07:35:00,
2013-03-11 03:40:00,43.3,23.4,30.15,NNE,23,0.0,2.7,45,0.00,,---,0.00,VWS V14.01,2013-03-11 07:40:00,
2013-03-11 03:45:00,43.2,23.3,30.15,ENE,76,0.0,0.0,45,0.00,,---,0.00,VWS V14.01,2013-03-11 07:45:00,
2013-03-11 03:50:00,43.0,23.1,30.15,NW,321,0.0,0.0,45,0.00,,---,0.00,VWS V14.01,2013-03-11 07:50:00,
2013-03-11 03:55:00,43.0,23.1,30.15,ENE,78,0.0,0.0,45,0.00,,---,0.00,VWS V14.01,2013-03-11 07:55:00,
2013-03-11 04:00:00,43.0,23.1,30.15,South,175,2.7,3.6,45,0.00,,---,0.00,VWS V14.01,2013-03-11 08:00:00,
2013-03-11 04:05:00,42.8,23.0,30.15,ESE,107,0.0,2.7,45,0.00,,---,0.00,VWS V14.01,2013-03-11 08:05:00,
2013-03-11 04:10:00,42.8,23.0,30.12,ESE,107,0.0,0.0,45,0.00,,---,0.00,VWS V14.01,2013-03-11 08:10:00,
2013-03-11 04:15:00,42.8,23.0,30.12,ESE,106,0.0,0.0,45,0.00,,---,0.00,VWS V14.01,2013-03-11 08:15:00,
2013-03-11 04:20:00,42.4,22.6,30.12,NNW,340,0.0,0.0,45,0.00,,---,0.00,VWS V14.01,2013-03-11 08:20:00,
2013-03-11 04:25:00,42.4,22.6,30.12,East,99,0.0,0.0,45,0.00,,---,0.00,VWS V14.01,2013-03-11 08:25:00,
2013-03-11 04:30:00,42.4,24.1,30.12,ENE,69,0.0,3.1,48,0.00,,---,0.00,VWS V14.01,2013-03-11 08:30:00,
2013-03-11 04:35:00,42.6,24.3,30.12,ESE,112,2.7,3.6,48,0.00,,---,0.00,VWS V14.01,2013-03-11 08:35:00,
2013-03-11 04:40:00,42.4,24.1,30.12,ESE,113,0.0,0.0,48,0.00,,---,0.00,VWS V14.01,2013-03-11 08:40:00,
2013-03-11 04:45:00,42.4,24.1,30.12,ESE,113,0.0,0.0,48,0.00,,---,0.00,VWS V14.01,2013-03-11 08:45:00,
2013-03-11 04:50:00,42.3,24.0,30.12,ESE,117,0.0,0.0,48,0.00,,---,0.00,VWS V14.01,2013-03-11 08:50:00,
2013-03-11 04:54:00,42.3,24.0,30.12,South,172,3.6,4.0,48,0.00,,---,0.00,VWS V14.01,2013-03-11 08:54:00,
2013-03-11 04:59:00,42.1,23.8,30.12,SSW,213,2.7,3.6,48,0.00,,---,0.00,VWS V14.01,2013-03-11 08:59:00,
2013-03-11 05:04:00,42.1,23.8,30.12,South,186,2.7,4.0,48,0.00,,---,0.00,VWS V14.01,2013-03-11 09:04:00,
2013-03-11 05:09:00,42.1,23.8,30.12,SE,131,0.0,0.0,48,0.00,,---,0.00,VWS V14.01,2013-03-11 09:09:00,
2013-03-11 05:14:00,42.1,23.8,30.12,SE,131,0.0,0.0,48,0.00,,---,0.00,VWS V14.01,2013-03-11 09:14:00,
2013-03-11 05:19:00,42.1,23.8,30.12,ESE,105,4.0,4.9,48,0.00,,---,0.00,VWS V14.01,2013-03-11 09:19:00,
2013-03-11 05:24:00,41.9,23.7,30.12,ESE,118,0.0,0.0,48,0.00,,---,0.00,VWS V14.01,2013-03-11 09:24:00,
2013-03-11 05:29:00,41.7,23.5,30.12,SW,217,2.7,4.5,48,0.00,,---,0.00,VWS V14.01,2013-03-11 09:29:00,
2013-03-11 05:34:00,41.7,23.5,30.12,SW,215,4.0,5.4,48,0.00,,---,0.00,VWS V14.01,2013-03-11 09:34:00,
2013-03-11 05:39:00,41.7,23.5,30.12,SW,234,2.7,4.0,48,0.00,,---,0.00,VWS V14.01,2013-03-11 09:39:00,
2013-03-11 05:44:00,41.9,23.7,30.12,SW,223,0.0,0.0,48,0.00,,---,0.00,VWS V14.01,2013-03-11 09:44:00,
2013-03-11 05:49:00,41.9,24.6,30.12,SSW,210,4.9,4.9,50,0.00,,---,0.00,VWS V14.01,2013-03-11 09:49:00,
2013-03-11 05:54:00,42.1,24.8,30.12,SW,233,3.1,4.9,50,0.00,,---,0.00,VWS V14.01,2013-03-11 09:54:00,
2013-03-11 05:59:00,42.1,26.2,30.12,SE,134,0.0,0.0,53,0.00,,---,0.00,VWS V14.01,2013-03-11 09:59:00,
2013-03-11 06:04:00,42.1,26.2,30.12,SE,130,0.0,0.0,53,0.00,,---,0.00,VWS V14.01,2013-03-11 10:04:00,
2013-03-11 06:09:00,41.9,26.0,30.12,ESE,116,0.0,0.0,53,0.00,,---,0.00,VWS V14.01,2013-03-11 10:09:00,
2013-03-11 06:14:00,41.7,27.2,30.12,SE,124,3.6,4.0,56,0.00,,---,0.00,VWS V14.01,2013-03-11 10:14:00,
2013-03-11 06:19:00,41.7,27.2,30.12,East,87,0.0,3.6,56,0.00,,---,0.00,VWS V14.01,2013-03-11 10:19:00,
2013-03-11 06:24:00,41.5,27.9,30.12,ESE,114,0.0,3.1,58,0.00,,---,0.00,VWS V14.01,2013-03-11 10:24:00,
2013-03-11 06:29:00,41.4,26.9,30.12,ESE,117,0.0,0.0,56,0.00,,---,0.00,VWS V14.01,2013-03-11 10:29:00,
2013-03-11 06:34:00,41.4,27.7,30.12,South,184,0.0,0.0,58,0.00,,---,0.00,VWS V14.01,2013-03-11 10:34:00,
2013-03-11 06:39:00,41.4,27.7,30.12,WSW,240,0.0,0.0,58,0.00,,---,0.00,VWS V14.01,2013-03-11 10:39:00,
2013-03-11 06:44:00,41.2,28.0,30.12,SSW,208,0.0,0.0,59,0.00,,---,0.00,VWS V14.01,2013-03-11 10:44:00,
2013-03-11 06:49:00,41.2,28.0,30.12,SSW,206,0.0,3.6,59,0.00,,---,0.00,VWS V14.01,2013-03-11 10:49:00,
2013-03-11 06:54:00,41.0,27.8,30.12,ESE,112,3.1,4.5,59,0.00,,---,0.00,VWS V14.01,2013-03-11 10:54:00,
2013-03-11 06:59:00,41.0,28.6,30.12,ENE,57,0.0,0.0,61,0.00,,---,0.00,VWS V14.01,2013-03-11 10:59:00,
2013-03-11 07:04:00,41.0,28.6,30.12,NE,55,2.7,3.1,61,0.00,,---,0.00,VWS V14.01,2013-03-11 11:04:00,
2013-03-11 07:09:00,41.0,28.2,30.12,ESE,103,2.7,4.5,60,0.00,,---,0.00,VWS V14.01,2013-03-11 11:09:00,
2013-03-11 07:14:00,41.0,29.0,30.12,NE,42,0.0,3.1,62,0.00,,---,0.00,VWS V14.01,2013-03-11 11:14:00,
2013-03-11 07:19:00,41.0,29.0,30.12,NE,46,3.1,4.0,62,0.00,,---,0.00,VWS V14.01,2013-03-11 11:19:00,
2013-03-11 07:24:00,41.0,29.4,30.12,SE,129,0.0,2.7,63,0.00,,---,0.00,VWS V14.01,2013-03-11 11:24:00,
2013-03-11 07:29:00,41.0,28.6,30.12,SE,129,0.0,0.0,61,0.00,,---,0.00,VWS V14.01,2013-03-11 11:29:00,
2013-03-11 07:34:00,41.0,28.6,30.12,SE,129,0.0,0.0,61,0.00,,---,0.00,VWS V14.01,2013-03-11 11:34:00,
2013-03-11 07:39:00,41.0,29.0,30.12,ENE,59,0.0,3.6,62,0.00,,---,0.00,VWS V14.01,2013-03-11 11:39:00,
2013-03-11 07:44:00,41.0,28.6,30.12,ENE,59,0.0,0.0,61,0.00,,---,0.00,VWS V14.01,2013-03-11 11:44:00,
2013-03-11 07:49:00,41.0,28.6,30.12,West,278,0.0,0.0,61,0.00,,---,0.00,VWS V14.01,2013-03-11 11:49:00,
2013-03-11 07:54:00,41.0,28.6,30.12,West,278,0.0,0.0,61,0.00,,---,0.00,VWS V14.01,2013-03-11 11:54:00,
2013-03-11 07:59:00,41.2,29.9,30.12,North,356,0.0,2.7,64,0.00,,---,0.00,VWS V14.01,2013-03-11 11:59:00,
2013-03-11 08:04:00,41.2,29.9,30.12,ENE,62,0.0,0.0,64,0.00,,---,0.00,VWS V14.01,2013-03-11 12:04:00,
2013-03-11 08:09:00,41.2,31.1,30.12,NE,47,0.0,4.0,67,0.00,,---,0.00,VWS V14.01,2013-03-11 12:09:00,
2013-03-11 08:14:00,41.2,30.3,30.12,NW,318,0.0,0.0,65,0.00,,---,0.00,VWS V14.01,2013-03-11 12:14:00,
2013-03-11 08:19:00,41.2,30.7,30.12,WSW,252,3.6,4.0,66,0.00,,---,0.00,VWS V14.01,2013-03-11 12:19:00,
2013-03-11 08:24:00,41.4,30.9,30.12,West,263,3.1,3.6,66,0.00,,---,0.00,VWS V14.01,2013-03-11 12:24:00,
2013-03-11 08:29:00,41.5,31.0,30.12,North,351,0.0,6.7,66,0.00,,---,0.00,VWS V14.01,2013-03-11 12:29:00,
2013-03-11 08:34:00,41.5,31.0,30.12,WSW,253,5.4,5.4,66,0.00,,---,0.00,VWS V14.01,2013-03-11 12:34:00,
2013-03-11 08:39:00,41.7,31.2,30.12,WSW,254,3.6,4.0,66,0.00,,---,0.00,VWS V14.01,2013-03-11 12:39:00,
2013-03-11 08:44:00,41.7,32.0,30.12,WSW,252,0.0,0.0,68,0.00,,---,0.00,VWS V14.01,2013-03-11 12:44:00,
2013-03-11 08:49:00,41.9,32.1,30.12,SE,128,0.0,0.0,68,0.00,,---,0.00,VWS V14.01,2013-03-11 12:49:00,
2013-03-11 08:54:00,42.1,32.3,30.12,East,96,0.0,0.0,68,0.00,,---,0.00,VWS V14.01,2013-03-11 12:54:00,
2013-03-11 08:59:00,42.1,31.9,30.12,ESE,102,0.0,0.0,67,0.00,,---,0.00,VWS V14.01,2013-03-11 12:59:00,
2013-03-11 09:04:00,42.1,32.3,30.12,ESE,103,0.0,0.0,68,0.00,,---,0.00,VWS V14.01,2013-03-11 13:04:00,
2013-03-11 09:09:00,42.1,32.3,30.15,WSW,251,3.1,6.7,68,0.00,,---,0.00,VWS V14.01,2013-03-11 13:09:00,
2013-03-11 09:14:00,42.3,32.5,30.15,ESE,110,4.0,5.4,68,0.00,,---,0.00,VWS V14.01,2013-03-11 13:14:00,
2013-03-11 09:19:00,42.3,32.8,30.15,South,184,0.0,0.0,69,0.00,,---,0.00,VWS V14.01,2013-03-11 13:19:00,
2013-03-11 09:24:00,42.3,32.8,30.15,SSE,152,0.0,0.0,69,0.00,,---,0.00,VWS V14.01,2013-03-11 13:24:00,
2013-03-11 09:29:00,42.4,32.6,30.15,SSE,152,0.0,0.0,68,0.00,,---,0.00,VWS V14.01,2013-03-11 13:29:00,
2013-03-11 09:34:00,42.4,32.6,30.12,ESE,110,2.7,2.7,68,0.00,,---,0.00,VWS V14.01,2013-03-11 13:34:00,
2013-03-11 09:39:00,42.4,33.0,30.12,ESE,121,3.1,3.1,69,0.00,,---,0.00,VWS V14.01,2013-03-11 13:39:00,
2013-03-11 09:44:00,42.4,33.0,30.12,South,173,0.0,0.0,69,0.00,,---,0.00,VWS V14.01,2013-03-11 13:44:00,
2013-03-11 09:49:00,42.4,33.4,30.12,East,95,4.0,4.5,70,0.00,,---,0.00,VWS V14.01,2013-03-11 13:49:00,
2013-03-11 09:54:00,42.4,33.4,30.12,SE,139,0.0,0.0,70,0.00,,---,0.00,VWS V14.01,2013-03-11 13:54:00,
2013-03-11 09:59:00,42.4,33.4,30.12,SE,129,3.1,4.0,70,0.00,,---,0.00,VWS V14.01,2013-03-11 13:59:00,
2013-03-11 10:04:00,42.4,33.4,30.12,ENE,77,0.0,4.5,70,0.00,,---,0.00,VWS V14.01,2013-03-11 14:04:00,
2013-03-11 10:09:00,42.4,33.4,30.12,ESE,114,2.7,3.6,70,0.00,,---,0.00,VWS V14.01,2013-03-11 14:09:00,
2013-03-11 10:14:00,42.4,33.7,30.12,East,98,0.0,5.4,71,0.00,,---,0.00,VWS V14.01,2013-03-11 14:14:00,
2013-03-11 10:19:00,42.6,33.5,30.12,ESE,112,0.0,0.0,70,0.00,,---,0.00,VWS V14.01,2013-03-11 14:19:00,
2013-03-11 10:24:00,42.8,33.7,30.12,SW,235,2.7,4.0,70,0.00,,---,0.00,VWS V14.01,2013-03-11 14:24:00,
2013-03-11 10:29:00,43.0,33.9,30.12,SE,126,0.0,0.0,70,0.00,,---,0.00,VWS V14.01,2013-03-11 14:29:00,
2013-03-11 10:34:00,43.0,33.9,30.12,SSE,168,0.0,3.6,70,0.00,,---,0.00,VWS V14.01,2013-03-11 14:34:00,
2013-03-11 10:39:00,43.3,34.2,30.12,SSE,161,2.7,4.0,70,0.00,,---,0.00,VWS V14.01,2013-03-11 14:39:00,
2013-03-11 10:44:00,43.3,34.2,30.12,SSE,150,0.0,0.0,70,0.00,,---,0.00,VWS V14.01,2013-03-11 14:44:00,
2013-03-11 10:49:00,43.5,34.4,30.12,South,173,0.0,3.1,70,0.00,,---,0.00,VWS V14.01,2013-03-11 14:49:00,
2013-03-11 10:54:00,43.5,34.4,30.12,SE,134,3.6,5.4,70,0.00,,---,0.00,VWS V14.01,2013-03-11 14:54:00,
2013-03-11 10:59:00,43.7,34.6,30.12,SE,130,3.1,4.5,70,0.00,,---,0.00,VWS V14.01,2013-03-11 14:59:00,
2013-03-11 11:04:00,43.7,34.2,30.12,ESE,103,4.0,4.9,69,0.00,,---,0.00,VWS V14.01,2013-03-11 15:04:00,
2013-03-11 11:09:00,43.7,34.6,30.12,SE,135,4.9,5.8,70,0.00,,---,0.00,VWS V14.01,2013-03-11 15:09:00,
2013-03-11 11:14:00,43.9,34.4,30.12,SE,131,0.0,0.0,69,0.00,,---,0.00,VWS V14.01,2013-03-11 15:14:00,
2013-03-11 11:19:00,44.2,35.1,30.12,SSW,213,0.0,3.6,70,0.00,,---,0.00,VWS V14.01,2013-03-11 15:19:00,
2013-03-11 11:24:00,44.6,35.4,30.12,SE,137,0.0,2.7,70,0.00,,---,0.00,VWS V14.01,2013-03-11 15:24:00,
2013-03-11 11:29:00,44.8,35.2,30.12,ESE,118,3.1,4.5,69,0.00,,---,0.00,VWS V14.01,2013-03-11 15:29:00,
2013-03-11 11:34:00,45.1,35.6,30.12,East,97,2.7,3.1,69,0.00,,---,0.00,VWS V14.01,2013-03-11 15:34:00,
2013-03-11 11:39:00,45.3,35.8,30.12,SSW,193,0.0,0.0,69,0.00,,---,0.00,VWS V14.01,2013-03-11 15:39:00,
2013-03-11 11:44:00,45.9,36.3,30.12,ESE,107,3.6,4.5,69,0.00,,---,0.00,VWS V14.01,2013-03-11 15:44:00,
2013-03-11 11:49:00,45.9,35.9,30.12,ESE,106,0.0,3.6,68,0.00,,---,0.00,VWS V14.01,2013-03-11 15:49:00,
2013-03-11 11:54:00,45.9,35.9,30.12,WSW,258,4.5,5.8,68,0.00,,---,0.00,VWS V14.01,2013-03-11 15:54:00,
2013-03-11 11:59:00,46.4,36.4,30.12,SSW,208,4.9,4.9,68,0.00,,---,0.00,VWS V14.01,2013-03-11 15:59:00,
2013-03-11 12:04:00,46.4,36.4,30.12,ESE,116,0.0,3.1,68,0.00,,---,0.00,VWS V14.01,2013-03-11 16:04:00,
2013-03-11 12:09:00,46.6,36.6,30.12,ESE,108,0.0,0.0,68,0.00,,---,0.00,VWS V14.01,2013-03-11 16:09:00,
2013-03-11 12:14:00,46.4,36.0,30.12,SE,132,0.0,3.6,67,0.00,,---,0.00,VWS V14.01,2013-03-11 16:14:00,
2013-03-11 12:19:00,46.6,36.6,30.12,SE,134,0.0,2.7,68,0.00,,---,0.00,VWS V14.01,2013-03-11 16:19:00,
2013-03-11 12:24:00,46.6,36.2,30.09,SE,125,0.0,0.0,67,0.00,,---,0.00,VWS V14.01,2013-03-11 16:24:00,
2013-03-11 12:29:00,46.9,36.9,30.09,WSW,245,0.0,0.0,68,0.00,,---,0.00,VWS V14.01,2013-03-11 16:29:00,
2013-03-11 12:34:00,47.1,36.7,30.09,East,96,0.0,3.6,67,0.00,,---,0.00,VWS V14.01,2013-03-11 16:34:00,
2013-03-11 12:39:00,47.1,36.7,30.09,SE,143,0.0,0.0,67,0.00,,---,0.00,VWS V14.01,2013-03-11 16:39:00,
2013-03-11 12:44:00,47.3,36.9,30.09,SW,231,4.5,5.4,67,0.00,,---,0.00,VWS V14.01,2013-03-11 16:44:00,
2013-03-11 12:49:00,47.5,37.1,30.09,South,170,0.0,4.5,67,0.00,,---,0.00,VWS V14.01,2013-03-11 16:49:00,
2013-03-11 12:54:00,47.7,37.3,30.09,SW,218,0.0,0.0,67,0.00,,---,0.00,VWS V14.01,2013-03-11 16:54:00,
2013-03-11 12:59:00,48.0,37.6,30.09,SSW,197,4.0,4.9,67,0.00,,---,0.00,VWS V14.01,2013-03-11 16:59:00,
2013-03-11 13:04:00,48.6,38.1,30.09,SSW,206,4.5,6.3,67,0.00,,---,0.00,VWS V14.01,2013-03-11 17:04:00,
2013-03-11 13:09:00,49.1,38.2,30.09,South,186,4.9,7.4,66,0.00,,---,0.00,VWS V14.01,2013-03-11 17:09:00,
2013-03-11 13:14:00,50.2,38.1,30.09,SSW,194,3.6,7.8,63,0.00,,---,0.00,VWS V14.01,2013-03-11 17:14:00,
2013-03-11 13:19:00,50.4,37.4,30.09,SSW,197,4.9,7.8,61,0.00,,---,0.00,VWS V14.01,2013-03-11 17:19:00,
2013-03-11 13:24:00,51.1,37.3,30.06,SW,221,6.7,6.9,59,0.00,,---,0.00,VWS V14.01,2013-03-11 17:24:00,
2013-03-11 13:29:00,51.6,37.8,30.06,SSW,194,6.7,9.6,59,0.00,,---,0.00,VWS V14.01,2013-03-11 17:29:00,
2013-03-11 13:34:00,51.8,37.1,30.06,East,96,5.4,8.7,57,0.00,,---,0.00,VWS V14.01,2013-03-11 17:34:00,
2013-03-11 13:39:00,51.8,37.1,30.06,SE,135,5.4,6.7,57,0.00,,---,0.00,VWS V14.01,2013-03-11 17:39:00,
2013-03-11 13:44:00,51.8,37.5,30.06,WSW,245,3.1,5.8,58,0.00,,---,0.00,VWS V14.01,2013-03-11 17:44:00,
2013-03-11 13:49:00,52.5,37.7,30.06,SW,221,4.5,5.8,57,0.00,,---,0.00,VWS V14.01,2013-03-11 17:49:00,
2013-03-11 13:54:00,53.1,37.8,30.06,SW,226,6.7,6.7,56,0.00,,---,0.00,VWS V14.01,2013-03-11 17:54:00,
2013-03-11 13:59:00,53.4,38.1,30.06,SW,219,4.9,8.3,56,0.00,,---,0.00,VWS V14.01,2013-03-11 17:59:00,
2013-03-11 14:04:00,53.2,38.0,30.06,WSW,245,6.3,6.7,56,0.00,,---,0.00,VWS V14.01,2013-03-11 18:04:00,
2013-03-11 14:09:00,53.6,38.3,30.03,SSW,199,3.6,4.5,56,0.00,,---,0.00,VWS V14.01,2013-03-11 18:09:00,
2013-03-11 14:14:00,54.3,39.0,30.03,SSE,152,0.0,4.0,56,0.00,,---,0.00,VWS V14.01,2013-03-11 18:14:00,
2013-03-11 14:19:00,54.3,38.5,30.03,South,186,4.5,5.8,55,0.00,,---,0.00,VWS V14.01,2013-03-11 18:19:00,
2013-03-11 14:24:00,54.3,38.5,30.03,West,276,4.5,6.3,55,0.00,,---,0.00,VWS V14.01,2013-03-11 18:24:00,
2013-03-11 14:29:00,54.3,38.5,30.03,SW,229,3.1,6.9,55,0.00,,---,0.00,VWS V14.01,2013-03-11 18:29:00,
2013-03-11 14:34:00,54.9,39.0,30.03,SSW,212,6.9,8.3,55,0.00,,---,0.00,VWS V14.01,2013-03-11 18:34:00,
2013-03-11 14:39:00,55.2,37.9,30.03,SSW,206,5.4,7.8,52,0.00,,---,0.00,VWS V14.01,2013-03-11 18:39:00,
2013-03-11 14:44:00,55.6,38.2,30.03,SSW,203,4.0,11.0,52,0.00,,---,0.00,VWS V14.01,2013-03-11 18:44:00,
2013-03-11 14:49:00,55.4,37.1,30.03,South,187,4.5,5.8,50,0.00,,---,0.00,VWS V14.01,2013-03-11 18:49:00,
2013-03-11 14:54:00,55.2,35.4,30.01,SW,226,4.5,9.6,47,0.00,,---,0.00,VWS V14.01,2013-03-11 18:54:00,
2013-03-11 14:59:00,55.2,35.4,30.01,SW,222,6.9,10.1,47,0.00,,---,0.00,VWS V14.01,2013-03-11 18:59:00,
2013-03-11 15:04:00,55.0,35.2,30.01,South,191,4.0,6.7,47,0.00,,---,0.00,VWS V14.01,2013-03-11 19:04:00,
2013-03-11 15:09:00,55.2,35.4,30.01,SW,219,4.9,6.9,47,0.00,,---,0.00,VWS V14.01,2013-03-11 19:09:00,
2013-03-11 15:14:00,55.2,35.4,30.01,SSW,208,6.7,9.6,47,0.00,,---,0.00,VWS V14.01,2013-03-11 19:14:00,
2013-03-11 15:19:00,55.4,35.5,30.01,SSW,212,7.4,7.4,47,0.00,,---,0.00,VWS V14.01,2013-03-11 19:19:00,
2013-03-11 15:24:00,55.6,35.7,30.01,SSW,198,8.7,8.7,47,0.00,,---,0.00,VWS V14.01,2013-03-11 19:24:00,
2013-03-11 15:29:00,55.8,35.8,30.01,SSW,200,5.4,7.8,47,0.00,,---,0.00,VWS V14.01,2013-03-11 19:29:00,
2013-03-11 15:34:00,55.8,35.8,30.01,SW,227,6.3,6.7,47,0.00,,---,0.00,VWS V14.01,2013-03-11 19:34:00,
2013-03-11 15:39:00,55.8,35.8,30.01,WSW,248,5.8,8.7,47,0.00,,---,0.00,VWS V14.01,2013-03-11 19:39:00,
2013-03-11 15:44:00,55.8,34.8,30.01,SSW,200,6.3,6.7,45,0.00,,---,0.00,VWS V14.01,2013-03-11 19:44:00,
2013-03-11 15:49:00,55.8,34.8,30.01,SW,232,4.9,9.2,45,0.00,,---,0.00,VWS V14.01,2013-03-11 19:49:00,
2013-03-11 15:54:00,55.8,34.8,29.98,SW,222,6.9,8.7,45,0.00,,---,0.00,VWS V14.01,2013-03-11 19:54:00,
2013-03-11 15:59:00,55.8,34.8,29.98,South,182,5.4,8.7,45,0.00,,---,0.00,VWS V14.01,2013-03-11 19:59:00,
2013-03-11 16:04:00,55.8,34.8,29.98,SSW,209,5.8,8.7,45,0.00,,---,0.00,VWS V14.01,2013-03-11 20:04:00,
2013-03-11 16:09:00,55.8,34.8,29.98,SW,224,6.7,7.8,45,0.00,,---,0.00,VWS V14.01,2013-03-11 20:09:00,
2013-03-11 16:14:00,55.8,34.8,29.98,WSW,256,5.4,7.8,45,0.00,,---,0.00,VWS V14.01,2013-03-11 20:14:00,
2013-03-11 16:19:00,55.9,34.9,29.98,SSW,210,6.7,6.7,45,0.00,,---,0.00,VWS V14.01,2013-03-11 20:19:00,
2013-03-11 16:24:00,55.9,34.9,30.01,WSW,249,7.8,8.3,45,0.00,,---,0.00,VWS V14.01,2013-03-11 20:24:00,
2013-03-11 16:29:00,56.1,35.1,30.01,WSW,255,6.9,6.9,45,0.00,,---,0.00,VWS V14.01,2013-03-11 20:29:00,
2013-03-11 16:34:00,56.1,35.1,30.01,SW,236,2.7,6.7,45,0.00,,---,0.00,VWS V14.01,2013-03-11 20:34:00,
2013-03-11 16:39:00,56.1,35.1,29.98,SW,217,6.3,8.7,45,0.00,,---,0.00,VWS V14.01,2013-03-11 20:39:00,
2013-03-11 16:44:00,56.1,35.1,29.98,WSW,237,2.7,6.3,45,0.00,,---,0.00,VWS V14.01,2013-03-11 20:44:00,
2013-03-11 16:49:00,55.8,34.8,29.98,WSW,246,6.3,8.7,45,0.00,,---,0.00,VWS V14.01,2013-03-11 20:49:00,
2013-03-11 16:54:00,55.6,34.6,29.98,SSW,200,4.0,4.9,45,0.00,,---,0.00,VWS V14.01,2013-03-11 20:54:00,
2013-03-11 16:59:00,55.4,34.4,29.98,SSW,208,3.6,5.8,45,0.00,,---,0.00,VWS V14.01,2013-03-11 20:59:00,
2013-03-11 17:04:00,55.4,34.4,29.98,SW,226,4.9,4.9,45,0.00,,---,0.00,VWS V14.01,2013-03-11 21:04:00,
2013-03-11 17:09:00,55.2,34.3,29.98,SW,233,3.1,4.0,45,0.00,,---,0.00,VWS V14.01,2013-03-11 21:09:00,
2013-03-11 17:14:00,55.4,34.4,29.98,SSW,194,0.0,0.0,45,0.00,,---,0.00,VWS V14.01,2013-03-11 21:14:00,
2013-03-11 17:19:00,55.6,34.6,29.98,SSW,194,0.0,0.0,45,0.00,,---,0.00,VWS V14.01,2013-03-11 21:19:00,
2013-03-11 17:24:00,55.8,34.8,29.98,WNW,283,2.7,2.7,45,0.00,,---,0.00,VWS V14.01,2013-03-11 21:24:00,
2013-03-11 17:29:00,55.9,34.9,29.98,West,270,0.0,0.0,45,0.00,,---,0.00,VWS V14.01,2013-03-11 21:29:00,
2013-03-11 17:34:00,55.9,34.9,29.98,SW,225,4.5,5.8,45,0.00,,---,0.00,VWS V14.01,2013-03-11 21:34:00,
2013-03-11 17:39:00,55.9,34.9,29.95,West,267,6.3,6.3,45,0.00,,---,0.00,VWS V14.01,2013-03-11 21:39:00,
2013-03-11 17:44:00,55.9,34.9,29.95,WSW,257,5.8,6.7,45,0.00,,---,0.00,VWS V14.01,2013-03-11 21:44:00,
2013-03-11 17:49:00,55.8,34.8,29.95,WSW,237,0.0,0.0,45,0.00,,---,0.00,VWS V14.01,2013-03-11 21:49:00,
2013-03-11 17:54:00,55.6,34.6,29.98,ESE,104,2.7,4.0,45,0.00,,---,0.00,VWS V14.01,2013-03-11 21:54:00,
2013-03-11 17:59:00,55.2,34.3,29.98,East,79,7.4,7.4,45,0.00,,---,0.00,VWS V14.01,2013-03-11 21:59:00,
2013-03-11 18:04:00,54.9,33.9,29.98,South,187,0.0,0.0,45,0.00,,---,0.00,VWS V14.01,2013-03-11 22:04:00,
2013-03-11 18:09:00,54.7,34.9,29.95,ESE,109,2.7,4.5,47,0.00,,---,0.00,VWS V14.01,2013-03-11 22:09:00,
2013-03-11 18:14:00,54.5,34.7,29.95,South,181,4.5,6.3,47,0.00,,---,0.00,VWS V14.01,2013-03-11 22:14:00,
2013-03-11 18:19:00,54.5,35.2,29.95,SSE,161,0.0,3.6,48,0.00,,---,0.00,VWS V14.01,2013-03-11 22:19:00,
2013-03-11 18:24:00,54.3,35.1,29.95,ESE,109,0.0,0.0,48,0.00,,---,0.00,VWS V14.01,2013-03-11 22:24:00,
2013-03-11 18:29:00,54.0,35.8,29.95,SSE,152,3.6,4.0,50,0.00,,---,0.00,VWS V14.01,2013-03-11 22:29:00,
2013-03-11 18:34:00,54.0,37.2,29.95,SW,214,4.0,4.5,53,0.00,,---,0.00,VWS V14.01,2013-03-11 22:34:00,
2013-03-11 18:39:00,53.8,37.1,29.98,SW,224,6.3,9.6,53,0.00,,---,0.00,VWS V14.01,2013-03-11 22:39:00,
2013-03-11 18:44:00,53.8,37.1,29.98,ESE,120,0.0,3.1,53,0.00,,---,0.00,VWS V14.01,2013-03-11 22:44:00,
2013-03-11 18:49:00,53.6,36.9,29.98,SE,146,3.6,3.6,53,0.00,,---,0.00,VWS V14.01,2013-03-11 22:49:00,
2013-03-11 18:54:00,53.4,37.7,29.98,ESE,108,3.6,4.5,55,0.00,,---,0.00,VWS V14.01,2013-03-11 22:54:00,
2013-03-11 18:59:00,53.2,38.0,29.98,SE,128,3.6,4.5,56,0.00,,---,0.00,VWS V14.01,2013-03-11 22:59:00,
2013-03-11 19:04:00,53.2,38.0,29.98,ESE,117,4.0,4.9,56,0.00,,---,0.00,VWS V14.01,2013-03-11 23:04:00,
2013-03-11 19:09:00,53.2,38.0,29.98,SSW,204,2.7,6.7,56,0.00,,---,0.00,VWS V14.01,2013-03-11 23:09:00,
2013-03-11 19:14:00,53.2,38.4,29.98,South,180,4.5,4.5,57,0.00,,---,0.00,VWS V14.01,2013-03-11 23:14:00,
2013-03-11 19:19:00,53.2,38.4,29.98,SSW,207,5.8,6.3,57,0.00,,---,0.00,VWS V14.01,2013-03-11 23:19:00,
2013-03-11 19:24:00,53.2,38.4,29.98,ESE,110,0.0,0.0,57,0.00,,---,0.00,VWS V14.01,2013-03-11 23:24:00,
2013-03-11 19:29:00,53.1,38.2,29.98,SW,233,4.5,5.4,57,0.00,,---,0.00,VWS V14.01,2013-03-11 23:29:00,
2013-03-11 19:34:00,53.1,38.2,29.98,WNW,298,0.0,0.0,57,0.00,,---,0.00,VWS V14.01,2013-03-11 23:34:00,
2013-03-11 19:39:00,53.1,38.2,29.98,West,271,5.4,6.3,57,0.00,,---,0.00,VWS V14.01,2013-03-11 23:39:00,
2013-03-11 19:44:00,53.1,38.2,29.98,North,351,4.5,5.4,57,0.00,,---,0.00,VWS V14.01,2013-03-11 23:44:00,
2013-03-11 19:49:00,53.1,38.2,29.98,WNW,291,0.0,0.0,57,0.00,,---,0.00,VWS V14.01,2013-03-11 23:49:00,
2013-03-11 19:54:00,52.9,38.1,29.98,West,271,4.5,6.3,57,0.00,,---,0.00,VWS V14.01,2013-03-11 23:54:00,
2013-03-11 19:59:00,52.9,38.5,29.98,West,277,0.0,0.0,58,0.00,,---,0.00,VWS V14.01,2013-03-11 23:59:00,
2013-03-11 20:04:00,52.9,39.0,29.98,NW,324,0.0,0.0,59,0.00,,---,0.00,VWS V14.01,2013-03-12 00:04:00,
2013-03-11 20:09:00,52.7,39.6,29.95,South,187,0.0,3.1,61,0.00,,---,0.00,VWS V14.01,2013-03-12 00:09:00,
2013-03-11 20:14:00,52.5,39.0,29.95,West,267,0.0,0.0,60,0.00,,---,0.00,VWS V14.01,2013-03-12 00:14:00,
2013-03-11 20:19:00,52.5,40.3,29.95,ENE,74,0.0,0.0,63,0.00,,---,0.00,VWS V14.01,2013-03-12 00:19:00,
2013-03-11 20:24:00,52.5,40.3,29.95,SSE,168,3.1,3.6,63,0.00,,---,0.00,VWS V14.01,2013-03-12 00:24:00,
2013-03-11 20:29:00,52.5,41.1,29.95,SSW,209,4.0,4.9,65,0.00,,---,0.00,VWS V14.01,2013-03-12 00:29:00,
2013-03-11 20:34:00,52.5,41.1,29.95,SSW,202,4.9,5.8,65,0.00,,---,0.00,VWS V14.01,2013-03-12 00:34:00,
2013-03-11 20:39:00,52.3,41.3,29.95,South,187,0.0,0.0,66,0.00,,---,0.00,VWS V14.01,2013-03-12 00:39:00,
2013-03-11 20:44:00,52.2,41.5,29.95,SE,141,0.0,0.0,67,0.00,,---,0.00,VWS V14.01,2013-03-12 00:44:00,
2013-03-11 20:49:00,51.8,41.2,29.95,SE,141,0.0,0.0,67,0.00,,---,0.00,VWS V14.01,2013-03-12 00:49:00,
2013-03-11 20:54:00,51.6,41.4,29.95,SE,141,0.0,0.0,68,0.00,,---,0.00,VWS V14.01,2013-03-12 00:54:00,
2013-03-11 20:59:00,51.4,41.6,29.95,SE,126,0.0,0.0,69,0.00,,---,0.00,VWS V14.01,2013-03-12 00:59:00,
2013-03-11 21:04:00,51.1,42.0,29.95,ESE,111,5.4,5.8,71,0.00,,---,0.00,VWS V14.01,2013-03-12 01:04:00,
2013-03-11 21:09:00,51.1,43.8,29.92,ESE,116,7.4,8.3,76,0.00,,---,0.00,VWS V14.01,2013-03-12 01:09:00,
2013-03-11 21:14:00,51.3,44.6,29.92,South,187,4.0,8.7,78,0.00,,---,0.00,VWS V14.01,2013-03-12 01:14:00,
2013-03-11 21:19:00,51.6,45.3,29.92,SE,145,4.5,7.4,79,0.00,,---,0.00,VWS V14.01,2013-03-12 01:19:00,
2013-03-11 21:24:00,51.6,45.3,29.92,SSE,150,6.7,10.5,79,0.00,,---,0.00,VWS V14.01,2013-03-12 01:24:00,
2013-03-11 21:29:00,51.8,45.5,29.92,SSE,164,4.5,6.9,79,0.00,,---,0.00,VWS V14.01,2013-03-12 01:29:00,
2013-03-11 21:34:00,51.8,45.5,29.92,SSE,162,3.1,6.9,79,0.00,,---,0.00,VWS V14.01,2013-03-12 01:34:00,
2013-03-11 21:39:00,52.0,45.7,29.92,SSE,147,4.9,14.3,79,0.00,,---,0.00,VWS V14.01,2013-03-12 01:39:00,
2013-03-11 21:44:00,52.0,45.7,29.92,South,175,5.4,10.1,79,0.00,,---,0.00,VWS V14.01,2013-03-12 01:44:00,
2013-03-11 21:49:00,52.0,45.3,29.92,ESE,108,3.1,4.5,78,0.00,,---,0.00,VWS V14.01,2013-03-12 01:49:00,
2013-03-11 21:54:00,51.8,45.2,29.92,West,281,5.4,5.4,78,0.00,,---,0.00,VWS V14.01,2013-03-12 01:54:00,
2013-03-11 21:59:00,52.0,45.3,29.92,SW,223,3.6,4.5,78,0.00,,---,0.00,VWS V14.01,2013-03-12 01:59:00,
2013-03-11 22:04:00,51.8,45.2,29.92,ESE,116,3.1,8.7,78,0.00,,---,0.00,VWS V14.01,2013-03-12 02:04:00,
2013-03-11 22:09:00,51.8,45.2,29.92,SSE,152,0.0,4.9,78,0.00,,---,0.00,VWS V14.01,2013-03-12 02:09:00,
2013-03-11 22:14:00,51.8,45.5,29.92,ESE,112,2.7,5.4,79,0.00,,---,0.00,VWS V14.01,2013-03-12 02:14:00,
2013-03-11 22:19:00,52.0,45.3,29.92,SSE,163,7.4,7.4,78,0.00,,---,0.00,VWS V14.01,2013-03-12 02:19:00,
2013-03-11 22:24:00,52.0,45.3,29.92,ESE,115,0.0,4.5,78,0.00,,---,0.00,VWS V14.01,2013-03-12 02:24:00,
2013-03-11 22:29:00,52.0,45.3,29.92,SW,232,5.8,6.9,78,0.00,,---,0.00,VWS V14.01,2013-03-12 02:29:00,
2013-03-11 22:34:00,52.0,45.3,29.92,SW,221,3.6,4.0,78,0.00,,---,0.00,VWS V14.01,2013-03-12 02:34:00,
2013-03-11 22:39:00,52.0,45.3,29.92,WSW,239,0.0,0.0,78,0.00,,---,0.00,VWS V14.01,2013-03-12 02:39:00,
2013-03-11 22:44:00,52.2,45.5,29.92,North,351,3.6,3.6,78,0.00,,---,0.00,VWS V14.01,2013-03-12 02:44:00,
2013-03-11 22:49:00,52.2,45.5,29.92,SE,146,6.3,6.3,78,0.00,,---,0.00,VWS V14.01,2013-03-12 02:49:00,
2013-03-11 22:54:00,52.2,45.5,29.92,WSW,250,3.6,4.5,78,0.00,,---,0.00,VWS V14.01,2013-03-12 02:54:00,
2013-03-11 22:59:00,52.2,45.8,29.92,South,171,4.5,4.5,79,0.00,,---,0.00,VWS V14.01,2013-03-12 02:59:00,
2013-03-11 23:04:00,52.0,45.7,29.92,WSW,241,0.0,3.6,79,0.00,,---,0.00,VWS V14.01,2013-03-12 03:04:00,
2013-03-11 23:09:00,51.8,45.8,29.92,South,179,0.0,4.9,80,0.00,,---,0.00,VWS V14.01,2013-03-12 03:09:00,
2013-03-11 23:14:00,51.6,46.0,29.92,WSW,246,0.0,0.0,81,0.00,,---,0.00,VWS V14.01,2013-03-12 03:14:00,
2013-03-11 23:19:00,51.6,46.3,29.92,East,86,4.0,4.9,82,0.00,,---,0.00,VWS V14.01,2013-03-12 03:19:00,
2013-03-11 23:24:00,51.4,46.5,29.89,ESE,119,0.0,0.0,83,0.00,,---,0.00,VWS V14.01,2013-03-12 03:24:00,
2013-03-11 23:29:00,51.4,46.5,29.89,East,89,5.4,5.4,83,0.00,,---,0.00,VWS V14.01,2013-03-12 03:29:00,
2013-03-11 23:34:00,51.4,46.8,29.89,SSE,151,0.0,0.0,84,0.00,,---,0.00,VWS V14.01,2013-03-12 03:34:00,
2013-03-11 23:39:00,51.4,46.8,29.89,SSE,153,0.0,3.6,84,0.00,,---,0.00,VWS V14.01,2013-03-12 03:39:00,
2013-03-11 23:44:00,51.4,46.8,29.89,SSW,194,0.0,0.0,84,0.00,,---,0.00,VWS V14.01,2013-03-12 03:44:00,
2013-03-11 23:49:00,51.6,47.3,29.89,SSW,200,4.0,5.4,85,0.00,,---,0.00,VWS V14.01,2013-03-12 03:49:00,
2013-03-11 23:54:00,51.6,47.6,29.89,ESE,107,0.0,3.1,86,0.00,,---,0.00,VWS V14.01,2013-03-12 03:54:00,
2013-03-11 23:59:00,51.6,47.6,29.89,ESE,105,0.0,4.0,86,0.00,,---,0.00,VWS V14.01,2013-03-12 03:59:00,